Regional Weather Roundup
Issued by NWS State College, PA

Home | Current Version | Previous Version | Graphics & Text | Print | Product List | Glossary On
Versions: 1 2 3 4 5 6 7 8 9 10 11 12 13 14 15 16 17 18 19 20 21 22 23 24 25 26 27 28 29 30 31 32 33 34 35 36 37 38 39 40 41 42 43 44 45 46 47 48 49 50
000
ASUS41 KCTP 251210
RWRCTP

REGIONAL WEATHER ROUNDUP
NATIONAL WEATHER SERVICE STATE COLLEGE PA
800 AM EDT WED MAY 25 2016

Note: "fair" indicates few or no clouds below 12,000 feet with no
significant weather and/or obstructions to visibility.

* = STATION THAT DOES NOT REPORT PRECIPITATION /E.G. RAIN...SNOW...ETC/
    THUNDER OR FOG.

PAZ002>004-007>009-013>016-020>023-029>032-251300-
WESTERN PENNSYLVANIA

CITY           SKY/WX    TMP DP  RH WIND       PRES   REMARKS
ERIE           SUNNY     68  49  50 S13       30.10R
MEADVILLE      CLOUDY    61  50  67 S6        30.14R
FRANKLIN*      CLOUDY    61  48  63 SW8       30.17F
NEW CASTLE     FAIR      58  55  90 CALM      30.16R
BEAVER COUNTY  SUNNY     63  52  67 SW3       30.16R
BUTLER*        SUNNY     59  54  82 CALM      30.19S
PITTSBURGH INT CLOUDY    65  51  60 S3        30.16S
PITTSBURGH     CLOUDY    61  51  70 S5        30.17R
INDIANA*       SUNNY     61  54  77 SW5       30.21S
LATROBE        SUNNY     61  54  77 SW6       30.19R
WASHINGTON CO* CLOUDY    57  55  94 CALM      30.18S
$$

PAZ004>006-010>012-017>019-024>028-033>037-041-042-045-046-049>053-251300-
CENTRAL PENNSYLVANIA

CITY           SKY/WX    TMP DP  RH WIND       PRES   REMARKS
BRADFORD       CLOUDY    60  43  53 SW5       30.17R
DUBOIS         SUNNY     59  50  72 SW5       30.16S
CLEARFIELD     SUNNY     54  48  80 SW3       30.17S
JOHNSTOWN      SUNNY     62  45  53 SW7       30.20S
ALTOONA        SUNNY     64  50  60 SW6       30.18S
STATE COLLEGE  SUNNY     59  50  72 CALM      30.16R
WILLIAMSPORT   SUNNY     56  46  69 CALM      30.13R
SELINSGROVE    SUNNY     56  51  84 CALM      30.14R
FT INDIANTOWN  SUNNY     58  52  79 E1        30.13R
CAPITAL CITY   SUNNY     66  51  58 W7        30.13R
HARRISBURG     SUNNY     66  53  63 CALM      30.13R
YORK           SUNNY     66  56  70 SE3       30.14R
$$

PAZ038>040-043-044-047-048-054-055-060>062-067>071-251300-
EASTERN PENNSYLVANIA

CITY           SKY/WX    TMP DP  RH WIND       PRES   REMARKS
SCRANTON       SUNNY     58  45  62 CALM      30.13R
MOUNT POCONO   SUNNY     52  42  69 W5        30.13R
ALLENTOWN      SUNNY     60  54  80 SW3       30.11R
QUAKERTOWN*    SUNNY     59  55  88 CALM      30.12R
READING        SUNNY     61  54  77 CALM      30.12R
LANCASTER      SUNNY     62  52  69 NW3       30.14R
COATESVILLE    SUNNY     68  52  56 W6        30.15R
POTTSTOWN      SUNNY     60  54  80 VRB3      30.13R
BLUE BELL      SUNNY     61  52  72 W5        30.11R
DOYLESTOWN     SUNNY     60  55  83 CALM      30.10R
WILLOW GROVE   NOT AVBL
NORTH PHILA    SUNNY     70  52  52 NW7       30.11R
PHILADELPHIA   MOSUNNY   66  51  58 W5        30.11R
$$




USA.gov is the U.S. government's official web portal to all federal, state and local government web resources and services.